User: anonymous   Login
Location: Brede
(50.9167°N, 0.6000°E)
Time: 04:01:06
(UTC+00:00)
Language:

Explorer 7 - Orbit

View from above orbital plane
View from above orbital plane
View from above satellite
View from above satellite

Ground track
Ground track

The orbit data is extracted from the following two-line orbital elements,

1 00022U 59009A   21138.84480237  .00000638  00000-0  70135-4 0  9995
2 00022  50.2841 327.9667 0138587 100.5015 261.1581 14.95554923520558
Epoch (UTC): 18 May 2021 20:16:30
Eccentricity: 0.0138587
inclination: 50.2841°
perigee height: 484 km
apogee height: 677 km
right ascension of ascending node: 327.9667°
argument of perigee: 100.5015°
revolutions per day: 14.95554923
mean anomaly at epoch: 261.1581°
orbit number at epoch: 52055

The dashed part of the orbit path shows where the satellite is in the earth's shadow,  

DLR